LX1DH-13 Weather Reports


time (UTC)temp
C
wind
direction
speed
KPH
gust
KPH
rain 1hr
cm
rain 24hr
cm
rain mn
cm
humidity
%
barometer
mb
20260507182511 12 0.0 0.0 0.00 0.00 0.00 74 1016.7
20260507182010 12 0.0 0.0 0.00 0.00 0.00 74 1016.7
20260507181528 12 0.0 0.0 0.00 0.00 0.00 73 1016.7
20260507181011 12 0.0 0.0 0.00 0.00 0.00 73 1016.7
20260507180512 12 0.0 0.0 0.00 0.00 0.00 72 1016.7
20260507180031 12 0.0 0.0 0.00 0.00 0.00 72 1016.7
20260507175511 12 0.0 1.6 0.00 0.00 0.00 72 1016.5
20260507175012 12 0.0 1.6 0.00 0.00 0.00 72 1016.5
20260507174539 12 0 0.0 1.6 0.00 0.00 0.00 72 1016.5
20260507174015 12 0 0.0 1.6 0.00 0.00 0.00 72 1016.5
20260507173512 12 0 0.0 3.2 0.00 0.00 0.00 71 1016.5
20260507173051 12 0 0.0 3.2 0.00 0.00 0.00 71 1016.7
20260507172511 12 0 0.0 1.6 0.00 0.00 0.00 70 1016.6
20260507172011 12 0 0.0 1.6 0.00 0.00 0.00 70 1016.5
20260507171536 12 0 0.0 1.6 0.00 0.00 0.00 70 1016.4
20260507171012 12 0 0.0 4.8 0.00 0.00 0.00 70 1016.5
20260507170511 12 0 0.0 4.8 0.00 0.00 0.00 70 1016.5
20260507170036 12 0 0.0 4.8 0.00 0.00 0.00 69 1016.4
20260507165509 12 0 0.0 4.8 0.00 0.00 0.00 69 1016.4
20260507165009 12 0 0.0 4.8 0.00 0.00 0.00 69 1016.3
20260507164533 12 0 0.0 6.4 0.00 0.00 0.00 69 1016.4
20260507164010 12 9 0.0 6.4 0.00 0.00 0.00 68 1016.6
20260507163512 12 9 0.0 6.4 0.00 0.00 0.00 68 1016.4
20260507163029 12 0 0.0 4.8 0.00 0.00 0.00 69 1016.4
20260507162518 12 0 0.0 3.2 0.00 0.00 0.00 69 1016.4
20260507162009 12 0 0.0 4.8 0.00 0.00 0.00 69 1016.5
20260507161539 12 0 0.0 4.8 0.00 0.00 0.00 69 1016.6
20260507161009 12 5 0.0 4.8 0.00 0.00 0.00 69 1016.5
20260507160509 12 5 0.0 4.8 0.00 0.00 0.00 69 1016.4
20260507160030 12 0 0.0 4.8 0.00 0.00 0.00 69 1016.4
20260507155515 12 5 0.0 4.8 0.00 0.00 0.00 69 1016.3
20260507155014 13 0 0.0 6.4 0.00 0.00 0.00 69 1016.3
20260507154529 13 0 0.0 6.4 0.00 0.00 0.00 69 1016.4
20260507154012 12 5 1.6 6.4 0.00 0.00 0.00 69 1016.4
20260507153508 13 5 0.0 6.4 0.00 0.00 0.00 69 1016.4
20260507153028 12 0 0.0 6.4 0.00 0.00 0.00 69 1016.4
20260507152516 12 0 0.0 3.2 0.00 0.00 0.00 69 1016.5
20260507152013 12 5 0.0 3.2 0.00 0.00 0.00 69 1016.4
20260507151529 12 0 0.0 3.2 0.00 0.00 0.00 69 1016.5
20260507151008 12 0 0.0 3.2 0.00 0.00 0.00 69 1016.4
20260507150513 12 0 0.0 3.2 0.00 0.00 0.00 69 1016.4
20260507150037 12 0 0.0 3.2 0.00 0.00 0.00 69 1016.4
20260507145510 12 0 0.0 3.2 0.00 0.00 0.00 69 1016.5
20260507145016 12 5 0.0 3.2 0.00 0.00 0.00 69 1016.4
20260507144531 12 0 0.0 4.8 0.00 0.00 0.00 69 1016.4
20260507144012 12 0 0.0 4.8 0.00 0.00 0.00 69 1016.5
20260507143513 12 0 0.0 4.8 0.00 0.00 0.00 69 1016.3
20260507143028 12 0 0.0 4.8 0.00 0.00 0.00 69 1016.5
20260507142508 12 0 0.0 4.8 0.00 0.00 0.00 69 1016.3
20260507142022 12 5 0.0 6.4 0.00 0.00 0.00 68 1016.3
20260507141545 13 0 1.6 6.4 0.00 0.00 0.00 68 1016.4
20260507141010 13 0 0.0 6.4 0.00 0.00 0.00 68 1016.4
20260507140512 13 0 0.0 8.0 0.00 0.00 0.00 68 1016.4
20260507140029 13 0 0.0 8.0 0.00 0.00 0.00 67 1016.5
20260507135511 13 352 3.2 8.0 0.00 0.00 0.00 67 1016.4
20260507135011 13 351 3.2 8.0 0.00 0.00 0.00 66 1016.5
20260507134528 13 350 0.0 9.7 0.00 0.00 0.00 66 1016.4
20260507134011 13 350 1.6 9.7 0.00 0.00 0.00 65 1016.4
20260507133510 13 350 3.2 12.9 0.00 0.00 0.00 64 1016.4
20260507133047 13 340 4.8 12.9 0.00 0.00 0.00 64 1016.3
20260507132516 13 0 1.6 11.3 0.00 0.00 0.00 64 1016.2
20260507132009 14 360 1.6 12.9 0.00 0.00 0.00 63 1016.1
20260507131529 14 5 3.2 12.9 0.00 0.00 0.00 62 1016.3
20260507131010 14 13 1.6 12.9 0.00 0.00 0.00 61 1016.2
20260507130510 15 15 3.2 12.9 0.00 0.00 0.00 61 1016.2
20260507130034 15 360 3.2 12.9 0.00 0.00 0.00 61 1016.1
20260507125511 15 352 4.8 12.9 0.00 0.00 0.00 60 1016.2
20260507125011 15 360 3.2 11.3 0.00 0.00 0.00 60 1016.1
20260507124529 15 0 0.0 8.0 0.00 0.00 0.00 60 1016.1
20260507124010 15 0 1.6 8.0 0.00 0.00 0.00 61 1016.1
20260507123513 15 0 0.0 12.9 0.00 0.00 0.00 60 1016.0
20260507123037 15 333 3.2 12.9 0.00 0.00 0.00 61 1016.0
20260507122511 15 257 4.8 11.3 0.00 0.00 0.00 61 1016.0
20260507122011 15 304 1.6 9.7 0.00 0.00 0.00 64 1016.1
20260507121528 15 139 3.2 9.7 0.00 0.00 0.00 65 1016.2
20260507121010 14 146 1.6 11.3 0.00 0.00 0.00 65 1016.2
20260507120510 14 143 1.6 14.5 0.00 0.00 0.00 64 1016.3
20260507120034 14 164 4.8 14.5 0.00 0.00 0.00 65 1016.2
20260507115509 13 144 4.8 14.5 0.00 0.00 0.00 70 1016.2
20260507115010 13 0 0.0 8.0 0.00 0.00 0.00 70 1016.2
20260507114528 13 233 3.2 8.0 0.00 0.00 0.00 69 1016.2
20260507114010 12 0 1.6 9.7 0.00 0.00 0.00 70 1016.3
20260507113509 12 172 1.6 9.7 0.00 0.00 0.00 70 1016.1
20260507113034 12 172 3.2 9.7 0.00 0.00 0.00 70 1016.2
20260507112513 12 0 0.0 4.8 0.00 0.00 0.00 72 1016.2
20260507112011 12 0 1.6 6.4 0.00 0.00 0.00 72 1016.2
20260507111530 12 304 0.0 6.4 0.00 0.00 0.00 73 1016.2
20260507111010 12 0 1.6 4.8 0.00 0.00 0.00 73 1016.2
20260507110511 12 0 0.0 8.0 0.00 0.00 0.00 74 1016.3
20260507110037 11 0 0.0 8.0 0.00 0.00 0.00 73 1016.2
20260507105509 11 0 1.6 6.4 0.00 0.00 0.00 73 1016.2
20260507105011 11 331 0.0 6.4 0.00 0.00 0.00 73 1016.3
20260507104531 11 0 0.0 6.4 0.00 0.00 0.00 74 1016.3
20260507104011 11 0 1.6 6.4 0.00 0.00 0.00 74 1016.4
20260507103511 11 0 0.0 9.7 0.00 0.00 0.00 74 1016.2
20260507103031 11 339 3.2 9.7 0.00 0.00 0.00 73 1016.3
20260507102508 11 352 1.6 8.0 0.00 0.00 0.00 75 1016.3
20260507102009 11 336 3.2 8.0 0.00 0.00 0.00 74 1016.2
20260507101534 11 0 0.0 4.8 0.00 0.00 0.00 74 1016.1
20260507101011 11 0 0.0 3.2 0.00 0.00 0.00 74 1016.1
20260507100512 11 0 0.0 8.0 0.00 0.00 0.00 76 1016.2
20260507100030 11 0 0.0 8.0 0.00 0.00 0.00 75 1016.0
20260507095509 11 54 1.6 8.0 0.00 0.00 0.00 76 1016.1
20260507095014 11 0 0.0 6.4 0.00 0.00 0.00 76 1016.1
20260507094533 11 0 0.0 6.4 0.00 0.00 0.00 77 1016.1
20260507094016 11 0 1.6 6.4 0.00 0.00 0.00 77 1016.1
20260507093510 10 342 0.0 8.0 0.00 0.00 0.00 77 1016.0
20260507093028 10 0 0.0 8.0 0.00 0.00 0.00 78 1015.9
20260507092511 10 0 0.0 8.0 0.00 0.00 0.00 79 1015.9
20260507092011 10 65 0.0 4.8 0.00 0.00 0.00 79 1015.8
20260507091532 10 0 0.0 3.2 0.00 0.00 0.00 79 1015.9
20260507091009 10 0.0 0.0 0.00 0.00 0.00 79 1015.8
20260507090511 10 0.0 0.0 0.00 0.00 0.00 80 1015.8
20260507090030 10 0.0 0.0 0.00 0.00 0.00 79 1015.8
20260507085510 10 0.0 0.0 0.00 0.00 0.00 80 1015.7
20260507085008 10 0.0 0.0 0.00 0.00 0.00 81 1015.7
20260507084528 10 0.0 0.0 0.00 0.00 0.00 81 1015.6
20260507084009 10 0.0 0.0 0.00 0.00 0.00 80 1015.7
20260507083511 10 0.0 0.0 0.00 0.00 0.00 81 1015.5
20260507083030 10 0.0 0.0 0.00 0.00 0.00 81 1015.6
20260507082510 10 0.0 0.0 0.00 0.00 0.00 81 1015.5
20260507082010 10 0.0 0.0 0.00 0.00 0.00 81 1015.5
20260507081536 9 0.0 0.0 0.00 0.00 0.00 81 1015.5
20260507081010 9 0.0 0.0 0.00 0.00 0.00 81 1015.3
20260507080508 9 0.0 0.0 0.00 0.00 0.00 81 1015.4
20260507080030 9 0.0 0.0 0.00 0.00 0.00 82 1015.4
20260507075509 9 0.0 0.0 0.00 0.00 0.00 82 1015.3
20260507075011 9 0.0 0.0 0.00 0.00 0.00 82 1015.3
20260507074530 9 0.0 0.0 0.00 0.00 0.00 82 1015.2
20260507074010 9 0.0 0.0 0.00 0.00 0.00 82 1015.2
20260507073512 9 0.0 0.0 0.00 0.00 0.00 82 1015.1
20260507073028 9 0.0 0.0 0.00 0.00 0.00 82 1015.1
20260507072527 9 0.0 0.0 0.00 0.00 0.00 83 1015.0
20260507072010 9 0.0 0.0 0.00 0.00 0.00 83 1015.0
20260507071529 9 0.0 0.0 0.00 0.00 0.00 83 1014.9
20260507071010 9 0.0 0.0 0.00 0.00 0.00 84 1015.0
20260507070509 9 0.0 0.0 0.00 0.00 0.00 85 1014.9
20260507070041 9 0.0 0.0 0.00 0.00 0.00 85 1014.8
20260507065510 9 0.0 0.0 0.00 0.00 0.00 85 1014.8
20260507065010 8 0.0 0.0 0.00 0.00 0.00 86 1014.7
20260507064529 8 0.0 0.0 0.00 0.00 0.00 86 1014.7
20260507064010 8 0.0 0.0 0.00 0.00 0.00 86 1014.7
20260507063513 8 0.0 0.0 0.00 0.00 0.00 87 1014.6
20260507063034 8 0.0 0.0 0.00 0.00 0.00 88 1014.5
20260507062511 8 0.0 0.0 0.00 0.00 0.00 88 1014.5
20260507062011 8 0.0 0.0 0.00 0.00 0.00 88 1014.5
20260507061528 -17 0.0 0.0 0.00 0.00 0.00 1014.6
20260507061015 -17 0.0 0.0 0.00 0.00 0.00 1014.5
20260507060510 -17 0.0 0.0 0.00 0.00 0.00 1014.4
20260507060030 -17 0.0 0.0 0.00 0.00 0.00 1014.3
20260507055511 -17 0.0 0.0 0.00 0.00 0.00 1014.2
20260507055009 -17 0.0 0.0 0.00 0.00 0.00 1014.3
20260507054529 -17 0.0 0.0 0.00 0.00 0.00 1014.3
20260507054010 -17 0.0 0.0 0.00 0.00 0.00 1014.3
20260507053508 -17 0.0 0.0 0.00 0.00 0.00 1014.3
20260507053030 -17 0.0 0.0 0.00 0.00 0.00 1014.2
20260507052510 -17 0.0 0.0 0.00 0.00 0.00 1014.1
20260507052008 -17 0.0 0.0 0.00 0.00 0.00 1014.2
20260507051529 -17 0.0 0.0 0.00 0.00 0.00 1014.2
20260507051010 -17 0.0 0.0 0.00 0.00 0.00 1014.0
20260507050509 -17 0.0 0.0 0.00 0.00 0.00 1014.0
20260507050032 -17 0.0 0.0 0.00 0.00 0.00 1014.0
20260507045511 -17 0.0 0.0 0.00 0.00 0.00 1013.9
20260507045011 -17 0.0 0.0 0.00 0.00 0.00 1013.8
20260507044529 -17 0.0 0.0 0.00 0.00 0.00 1013.7
20260507044012 -17 0.0 0.0 0.00 0.00 0.00 1013.6
20260507043509 -17 0.0 0.0 0.00 0.00 0.00 1013.6
20260507043028 -17 0.0 0.0 0.00 0.00 0.00 1013.6
20260507042511 -17 0.0 0.0 0.00 0.00 0.00 1013.5
20260507042014 -17 0.0 0.0 0.00 0.00 0.00 1013.5
20260507041527 -17 0.0 0.0 0.00 0.00 0.00 1013.4
20260507041013 -17 0.0 0.0 0.00 0.00 0.00 1013.5
20260507040511 -17 0.0 0.0 0.00 0.00 0.00 1013.5
20260507040028 -17 0.0 0.0 0.00 0.00 0.00 1013.4
20260507035515 -17 0.0 0.0 0.00 0.00 0.00 1013.3
20260507035009 -17 0.0 0.0 0.00 0.00 0.00 1013.4
20260507034539 -17 0.0 0.0 0.00 0.00 0.00 1013.4
20260507034010 -17 0.0 0.0 0.00 0.00 0.00 1013.3
20260507033507 -17 0.0 0.0 0.00 0.00 0.00 1013.3
20260507033042 -17 0.0 0.0 0.00 0.00 0.00 1013.3
20260507032513 -17 0.0 0.0 0.00 0.00 0.00 1013.3
20260507032009 -17 0.0 0.0 0.00 0.00 0.00 1013.3
20260507031545 -17 0.0 0.0 0.00 0.00 0.00 1013.2
20260507031016 -17 0.0 0.0 0.00 0.00 0.00 1013.1
20260507030509 -17 0.0 0.0 0.00 0.00 0.00 1013.2
20260507030030 -17 0.0 0.0 0.00 0.00 0.00 1013.2
20260507025509 -17 0.0 0.0 0.00 0.00 0.00 1013.2
20260507025013 -17 0.0 0.0 0.00 0.00 0.00 1013.1
20260507024529 -17 0.0 0.0 0.00 0.00 0.00 1013.3
20260507024009 -17 0.0 0.0 0.00 0.00 0.00 1013.2
20260507023510 -17 0.0 0.0 0.00 0.00 0.00 1013.1
20260507023029 -17 0.0 0.0 0.00 0.00 0.00 1013.2
20260507022510 7 0.0 0.0 0.00 0.00 0.00 87 1013.1
20260507022008 7 0.0 0.0 0.00 0.00 0.00 86 1013.2
20260507021530 7 0.0 0.0 0.00 0.00 0.00 86 1013.2
20260507021010 7 0.0 0.0 0.00 0.00 0.00 86 1013.1
20260507020510 7 0.0 0.0 0.00 0.00 0.00 86 1012.9
20260507020029 7 0.0 0.0 0.00 0.00 0.00 86 1012.9
20260507015511 7 0.0 0.0 0.00 0.00 0.00 86 1012.8
20260507015010 7 0.0 0.0 0.00 0.00 0.00 86 1012.9
20260507014540 7 0.0 0.0 0.00 0.00 0.00 86 1012.9
20260507014010 7 0.0 0.0 0.00 0.00 0.00 86 1012.9
20260507013509 7 0.0 0.0 0.00 0.00 0.00 85 1012.8
20260507013036 7 0.0 0.0 0.00 0.00 0.00 85 1012.8
20260507012510 7 0.0 0.0 0.00 0.00 0.00 85 1012.8
20260507012012 7 0.0 0.0 0.00 0.00 0.00 85 1012.7
20260507011533 7 0.0 0.0 0.00 0.00 0.00 85 1012.7
20260507011010 7 0.0 0.0 0.00 0.00 0.00 85 1012.8
20260507010541 7 0.0 0.0 0.00 0.00 0.00 85 1012.6
20260507010035 7 0.0 0.0 0.00 0.00 0.00 85 1012.6
20260507005508 7 0.0 0.0 0.00 0.00 0.00 85 1012.6
20260507005014 7 0.0 0.0 0.00 0.00 0.00 85 1012.6
20260507004527 7 0.0 0.0 0.00 0.00 0.00 85 1012.4
20260507004010 7 0.0 0.0 0.00 0.00 0.00 84 1012.5
20260507003513 7 0.0 0.0 0.00 0.00 0.00 84 1012.5
20260507003030 7 0.0 0.0 0.00 0.00 0.00 84 1012.4
20260507002510 7 0.0 0.0 0.00 0.00 0.00 84 1012.4
20260507002011 7 0.0 0.0 0.00 0.00 0.00 84 1012.4
20260507001534 7 0.0 0.0 0.00 0.00 0.00 84 1012.5
20260507001010 8 0.0 0.0 0.00 0.00 0.00 84 1012.3
20260507000510 8 0.0 0.0 0.00 0.00 0.00 84 1012.3
20260507000028 8 0.0 0.0 0.00 0.00 0.00 84 1012.3
20260506235511 8 0.0 0.0 0.00 0.00 0.00 84 1012.4
20260506235009 8 0.0 0.0 0.00 0.00 0.00 84 1012.3
20260506234528 8 0.0 0.0 0.00 0.00 0.00 84 1012.3
20260506234011 8 0.0 0.0 0.00 0.00 0.00 84 1012.4
20260506233510 8 0.0 0.0 0.00 0.00 0.00 84 1012.3
20260506233030 8 0.0 0.0 0.00 0.00 0.00 84 1012.3
20260506232510 8 0.0 0.0 0.00 0.00 0.00 84 1012.3
20260506232011 8 0.0 0.0 0.00 0.00 0.00 84 1012.3
20260506231527 8 0.0 0.0 0.00 0.00 0.00 84 1012.2
20260506231010 8 0.0 0.0 0.00 0.00 0.00 84 1012.3
20260506230510 8 0.0 0.0 0.00 0.00 0.00 84 1012.2
20260506230031 8 0.0 0.0 0.00 0.00 0.00 84 1012.3
20260506225514 8 0.0 0.0 0.00 0.00 0.00 84 1012.1
20260506225016 8 0.0 0.0 0.00 0.00 0.00 84 1012.1
20260506224530 8 0.0 0.0 0.00 0.00 0.00 84 1012.2
20260506224007 8 0.0 0.0 0.00 0.00 0.00 84 1012.1
20260506223510 8 0.0 0.0 0.00 0.00 0.00 84 1012.1
20260506223027 8 0.0 0.0 0.00 0.00 0.00 84 1012.1
20260506222507 8 0.0 0.0 0.00 0.00 0.00 84 1012.0
20260506222011 8 0.0 0.0 0.00 0.00 0.00 84 1011.9
20260506221530 8 0.0 0.0 0.00 0.00 0.00 84 1011.9
20260506221011 8 0.0 0.0 0.00 0.00 0.00 84 1011.9
20260506220507 8 0.0 0.0 0.00 0.00 0.00 84 1011.9
20260506220030 8 0.0 0.0 0.00 0.00 0.00 84 1011.8
20260506215510 8 0.0 0.0 0.00 0.00 0.00 84 1011.8
20260506215010 8 0.0 0.0 0.00 0.00 0.00 84 1011.7
20260506214527 9 0.0 0.0 0.00 0.00 0.00 83 1011.7
20260506214013 9 0.0 0.0 0.00 0.00 0.00 83 1011.7
20260506213513 9 0.0 0.0 0.00 0.00 0.00 83 1011.6
20260506213032 9 0.0 0.0 0.00 0.00 0.00 83 1011.6
20260506212508 9 0.0 0.0 0.00 0.00 0.00 83 1011.4
20260506212015 9 0.0 0.0 0.00 0.00 0.00 83 1011.5
20260506211528 9 0.0 0.0 0.00 0.00 0.00 83 1011.4
20260506211007 9 0.0 0.0 0.00 0.00 0.00 82 1011.3
20260506210507 9 0.0 0.0 0.00 0.00 0.00 82 1011.4
20260506210033 9 0.0 0.0 0.00 0.00 0.00 82 1011.3
20260506205509 9 0.0 0.0 0.00 0.00 0.00 82 1011.2
20260506205007 9 0.0 0.0 0.00 0.00 0.00 82 1011.3
20260506204530 9 0.0 0.0 0.00 0.00 0.00 82 1011.3
20260506204011 9 0.0 0.0 0.00 0.00 0.00 82 1011.3
20260506203508 9 0.0 0.0 0.00 0.00 0.00 82 1011.3
20260506203036 9 0.0 0.0 0.00 0.00 0.00 82 1011.3
20260506202511 9 0.0 0.0 0.00 0.00 0.00 81 1011.2
20260506202011 9 0.0 0.0 0.00 0.00 0.00 81 1011.2
20260506201531 9 0.0 0.0 0.00 0.00 0.00 81 1011.1
20260506201010 9 0.0 0.0 0.00 0.00 0.00 81 1011.1
20260506200509 9 0.0 0.0 0.00 0.00 0.00 81 1011.0
20260506200033 9 0.0 0.0 0.00 0.00 0.00 81 1011.1
20260506195509 9 0.0 0.0 0.00 0.00 0.00 81 1011.1
20260506195010 10 0.0 0.0 0.00 0.00 0.00 81 1011.0
20260506194531 10 0.0 0.0 0.00 0.00 0.00 81 1010.9
20260506194014 10 0.0 0.0 0.00 0.00 0.00 81 1010.9
20260506193509 10 0.0 0.0 0.00 0.00 0.00 81 1010.8
20260506193030 10 0.0 0.0 0.00 0.00 0.00 81 1010.7
20260506192508 10 0.0 0.0 0.00 0.00 0.00 80 1010.5
20260506192017 10 0.0 0.0 0.00 0.00 0.00 80 1010.3
20260506191530 10 0.0 0.0 0.00 0.00 0.00 80 1010.2
20260506191011 10 0.0 0.0 0.00 0.00 0.00 80 1010.2
20260506190511 10 0.0 0.0 0.00 0.00 0.00 80 1010.1
20260506190027 10 0.0 0.0 0.00 0.00 0.00 80 1010.0
20260506185512 10 0.0 0.0 0.00 0.00 0.00 80 1010.0
20260506185012 10 0.0 0.0 0.00 0.00 0.00 80 1010.0
20260506184535 10 0.0 0.0 0.00 0.00 0.00 79 1009.8
20260506184013 10 0.0 0.0 0.00 0.00 0.00 79 1009.9
20260506183508 10 0.0 0.0 0.00 0.00 0.00 79 1009.9
20260506183030 10 8.0 16.1 0.00 0.00 0.00 78 1009.8